Regional Weather Roundup
Issued by NWS

Home | Current Version | Previous Version | Graphics & Text | Print | Product List | Glossary Off
Versions: 1 2 3 4 5 6 7 8 9 10 11 12 13 14 15 16 17 18 19 20 21 22 23 24 25 26 27 28 29 30 31 32 33 34 35 36 37 38 39 40 41 42 43 44 45 46 47 48 49 50

000
ASUS43 KMPX 271801
RWRMN
WEATHER ROUNDUP FOR MINNESOTA
NATIONAL WEATHER SERVICE TWIN CITIES/CHANHASSEN MN
100 PM CDT SAT AUG 27 2016


NOTE: "FAIR" INDICATES FEW OR NO CLOUDS BELOW 12,000 FEET WITH NO
SIGNIFICANT WEATHER AND/OR OBSTRUCTIONS TO VISIBILITY. N/A MEANS
CURRENT SKY AND/OR WEATHER CONDITIONS ARE NOT AVAILABLE.

MNZ060>063-068>070-271900-
   Twin Cities Metro

CITY           SKY/WX    TMP DP  RH WIND       PRES   REMARKS
TWIN CITIES    CLOUDY    65  59  81 SE9       30.02R
6HR MIN TEMP:  64; 6HR MAX TEMP:  67; 6HR PCP:  0.01;

ST PAUL        CLOUDY    66  61  84 SE12      30.02F
CRYSTAL        CLOUDY    67  59  75 SE8       29.99F
BLAINE         PTSUNNY   68  64  88 E8        30.00F
LAKEVILLE      CLOUDY    63  63 100 E7        30.02S
EDEN PRAIRIE   CLOUDY    67  62  84 SE8       30.00F
6HR MIN TEMP:  64; 6HR MAX TEMP:  68; 6HR PCP:  0.11;

LAKEVILLE      CLOUDY    63  63 100 E7        30.02S
SOUTH ST PAUL  CLOUDY    64  62  93 SE3       30.01F
LAKE ELMO      CLOUDY    66  61  82 E9        30.02F
$$
MNZ001>005-007-008-013>017-022>024-027-028-271900-
   Northwest Minnesota

CITY           SKY/WX    TMP DP  RH WIND       PRES   REMARKS
BEMIDJI        CLOUDY    63  57  80 S6        30.01S
HALLOCK        CLOUDY    66  59  77 S14G20    29.91F
ROSEAU         CLOUDY    57  54  88 SE6       29.93F
WARROAD        LGT RAIN  59  55  88 SE8       29.96F
THIEF RVR FALL LGT RAIN  58  55  90 S13       29.96F
CROOKSTON      CLOUDY    57  57 100 SE13      29.95F
FOSSTON        HVY RAIN  55  54  94 CALM      30.00R
DETROIT LAKES  CLOUDY    70  55  60 S16       29.97F
MOORHEAD       MOSUNNY   70  59  68 S13       29.93F THUNDER
PARK RAPIDS    CLOUDY    68  56  65 S12       30.00S
MAHNOMEN       CLOUDY    61  55  80 NE9       29.97S THUNDER
$$
MNZ006-009>011-018-025>026-271900-
   North Central Minnesota

CITY           SKY/WX    TMP DP  RH WIND       PRES   REMARKS
BAUDETTE       LGT RAIN  60  58  92 SW3       29.99F FOG
FLAG ISLAND    DRIZZLE   61  59  94 S6        29.96F
INTL FALLS     CLOUDY    68  55  63 S7        30.00F
6HR MIN TEMP:  54; 6HR MAX TEMP:  71;

WASKISH        CLOUDY    66  57  72 S6        30.00F
BIG FORK       CLOUDY    64  57  77 SE5       30.03S
LONGVILLE      CLOUDY    64  59  82 S6        30.01F
GRAND RAPIDS   CLOUDY    68  54  60 S8        30.04F
ORR            LGT RAIN  63  55  77 S5        30.02S
COOK           CLOUDY    64  55  72 S3        30.04F
WALKER         MOCLDY    64  58  80 SE5       30.00F
$$
MNZ012-019>021-037-271900-
   Northeast Minnesota

CITY           SKY/WX    TMP DP  RH WIND       PRES   REMARKS
DULUTH         CLOUDY    63  58  83 E7        30.04F
6HR MIN TEMP:  57; 6HR MAX TEMP:  63; 6HR PCP:  0.03;

ELY            PTSUNNY   68  52  56 SE9       30.05F
HIBBING        CLOUDY    66  56  70 SE8       30.04F
EVELETH        CLOUDY    65  54  66 SE8       30.05F
DULUTH HARBOR  CLOUDY    64  59  82 E6        30.04F
TWO HARBORS    LGT RAIN  66  61  82 CALM      30.05S
SILVER BAY     CLOUDY    64  59  82 CALM      30.05F
G MARAIS ARPRT CLOUDY    61  52  72 E5        30.11F
$$
MNZ029>031-032-039>041-046>048-054>057-064-271900-
   West Central Minnesota

CITY           SKY/WX    TMP DP  RH WIND       PRES   REMARKS
FERGUS FALLS   MOSUNNY   72  57  60 S16G22    29.97F
WHEATON        MOSUNNY   72  63  73 SE14G20   29.99F
MORRIS         MOSUNNY   72  57  60 SE15G21   29.98F
ALEXANDRIA     PTSUNNY   70  54  56 S13G20    30.02F
ELBOW LAKE     PTSUNNY   70  59  68 S13       29.99F
WADENA         PTSUNNY   70  54  56 S13       29.99F
GLENWOOD       MOSUNNY   68  57  68 SE9       30.01F
APPLETON       CLOUDY    66  57  72 SE8       29.99F
BENSON         CLOUDY    66  55  68 S8        30.00F
ORTONVILLE     CLOUDY    68  59  73 S8        29.99S
MADISON        SUNNY     64  61  88 S8        30.00F
WILLMAR        CLOUDY    66  57  72 SE6       30.02F
$$
MNZ033>034-036-042>043-049>051-058-059-271900-
   Central Minnesota

CITY           SKY/WX    TMP DP  RH WIND       PRES   REMARKS
ST CLOUD       CLOUDY    65  58  78 SE5       30.02S
6HR MIN TEMP:  58; 6HR MAX TEMP:  66; 6HR PCP:  0.04;

SAUK CENTRE    CLOUDY    66  57  72 S9        30.02F
PAYNESVILLE    CLOUDY    66  54  65 SE7       30.02F
AITKIN         PTSUNNY   70  55  60 SE10      30.02S
PINE RIVER     CLOUDY    68  59  73 SE8       30.03F
BRAINERD       CLOUDY    67  56  67 S9        30.02F
STAPLES        PTSUNNY   70  54  56 S10       30.01F
LONG PRAIRIE   CLOUDY    66  55  68 SE12      30.02F
LITTLE FALLS   CLOUDY    68  55  64 SE8       30.02F
LITCHFIELD     CLOUDY    64  61  88 CALM      30.02F
BUFFALO        CLOUDY    65  59  79 SE6       30.02R
MAPLE LAKE     CLOUDY    64  61  89 CALM      30.03R
HUTCHINSON     CLOUDY    66  62  87 SE7       30.02S
$$
MNZ037-044-045-052-053-271900-
   East Central Minnesota

CITY           SKY/WX    TMP DP  RH WIND       PRES   REMARKS
PRINCETON      LGT RAIN  66  61  82 SE3       30.02R
MORA           LGT RAIN  64  59  82 S3        30.04S
CAMBRIDGE      CLOUDY    66  57  72 SE6       30.00S
RUSH CITY      RAIN      64  60  86 SE8       30.02F
MOOSE LAKE     CLOUDY    64  59  82 CALM      30.02S
HINCKLEY       LGT RAIN  64  61  88 SE7       30.03S
CLOQUET        DRIZZLE   63  57  82 E3        30.04F
MCGREGOR       CLOUDY    70  55  60 S10       30.04S
$$
MNZ071>073-080-081-089-090-097-098-271900-
   Southwest Minnesota

CITY           SKY/WX    TMP DP  RH WIND       PRES   REMARKS
MONTEVIDEO     CLOUDY    66  61  82 S6        30.02F
GRANITE FALLS  CLOUDY    66  60  81 E7        30.01F
CANBY          CLOUDY    65  60  84 E6        30.01F
MARSHALL       CLOUDY    65  61  87 S7        30.00F
REDWOOD FALLS  CLOUDY    64  59  83 S9        30.00F
OLIVIA         CLOUDY    64  59  82 SE7       30.00S
PIPESTONE      CLOUDY    66  61  82 S5        30.01S
WINDOM         CLOUDY    66  63  88 S3        30.01F
WORTHINGTON    CLOUDY    65  62  90 SW7       30.02S
JACKSON          N/A     66  63  88 SW5       30.02S
TRACY          CLOUDY    66  63  89 E5        30.00F
SLAYTON        CLOUDY    64  61  88 S3        30.02F
$$
MNZ065>067-074>077-082>085-091>093-271900-
   South Central Minnesota

CITY           SKY/WX    TMP DP  RH WIND       PRES   REMARKS
MANKATO        CLOUDY    63  61  94 SE6       30.01S
NEW ULM          N/A     64  63  94 S8        30.01S
ST JAMES       CLOUDY    61  57  88 S3        30.02S
FAIRMONT       CLOUDY    68  63  84 SW5       30.01F
GLENCOE        CLOUDY    65  64  94 SE6       30.01R
FARIBAULT      CLOUDY    63  63 100 SE5       30.02S
OWATONNA       CLOUDY    64  63  94 S3        30.01S
WASECA         CLOUDY    63  61  94 S3        30.02F FOG
ALBERT LEA     CLOUDY    64  64 100 S3        30.01S FOG
$$
MNZ078>079-086>088-094>096-271900-
   Southeast Minnesota

CITY           SKY/WX    TMP DP  RH WIND       PRES   REMARKS
ROCHESTER      CLOUDY    65  63  93 S7        30.02F
6HR MIN TEMP:  60; 6HR MAX TEMP:  65; 6HR PCP: TRACE;

RED WING       RAIN      63  63 100 E3        30.01S
STANTON        CLOUDY    64  61  88 E7        30.00F
DODGE CENTER   CLOUDY    64  63  94 SE7       30.02S FOG
WINONA         CLOUDY    66  61  82 SE6       30.02F
AUSTIN         CLOUDY    64  63  94 S7        30.01F FOG
PRESTON        CLOUDY    65  62  89 S7        30.03F
$$
ABBREVIATIONS USED IN REMARKS
   TC - TEMPERATURES IN CELSIUS
  WCI - WIND CHILL INDEX
   HX - HEAT INDEX
  VSB - VISIBILITY
$$



USA.gov is the U.S. government's official web portal to all federal, state and local government web resources and services.